CAPE
0 1 0 0 0 0 0 0 0 0 0 0 0 0 0 0 0 0 0 0 0 1 4 10 8 14 10 3 0 3 2 0 0 0 0 0 0 0 2 0 0 1 1
4 3 0 0 0 0 0 0 0 0 0 0 0 0 0 0 0 0 0 0 0 0 0 15 17 19 14 10 0 0 0 0 0 0 0 0 0 0 0 0 1 3 5
0 0 0 0 0 0 0 0 0 0 0 0 0 0 0 0 0 0 0 0 0 0 0 0 1 13 12 2 6 1 0 0 0 0 0 0 0 0 0 0 0 0 0
0 1 1 0 0 0 0 0 0 0 0 0 0 0 0 0 0 0 0 0 0 0 0 0 0 0 3 4 4 4 8 1 1 10 0 0 0 0 0 0 0 0 0
0 9 11 34 1 0 0 0 0 0 0 0 0 0 0 0 0 0 0 0 0 0 0 0 0 0 0 7 19 8 14 21 14 1 0 0 0 0 0 0 0 0 0
174 136 116 112 77 25 2 0 0 0 0 0 0 0 0 0 0 0 0 0 0 0 0 0 0 0 0 0 0 0 7 22 14 2 0 0 0 0 0 0 0 0 0
111 140 144 101 105 77 62 12 0 0 0 0 0 0 0 0 0 0 0 0 0 0 0 0 0 0 0 0 0 0 0 0 0 0 0 0 0 0 0 0 0 0 0
43 45 92 122 84 43 6 0 0 0 0 0 0 0 0 0 0 0 0 0 0 0 0 0 0 0 0 0 0 0 0 0 0 0 0 0 0 0 0 0 0 0 0
0 0 0 0 20 37 20 0 0 0 0 0 0 0 0 0 0 0 0 0 0 0 0 0 0 0 0 0 0 0 0 0 0 0 0 0 0 0 0 0 0 0 0
0 0 0 0 13 33 19 16 0 0 0 0 0 0 0 0 0 0 0 0 0 0 0 0 0 0 0 0 0 0 0 0 0 0 0 0 0 0 0 0 0 0 0
0 0 0 3 5 28 46 20 0 0 0 0 0 0 0 0 0 0 0 0 0 0 0 0 0 0 0 0 0 0 0 0 0 0 0 0 2 0 0 0 0 0 0
0 0 0 1 0 4 44 17 0 0 0 0 0 0 0 0 0 0 0 0 0 0 0 0 0 0 0 0 0 0 0 0 0 0 0 9 24 27 10 0 0 0 0
0 2 4 7 3 17 42 23 1 0 0 0 0 0 0 0 0 0 0 0 0 0 0 0 0 0 0 0 0 0 0 0 0 0 0 3 22 31 24 14 1 0 0
0 0 0 0 4 34 15 0 0 7 0 0 0 0 0 0 0 0 0 0 0 0 0 0 0 0 0 0 0 0 0 0 0 0 0 0 11 28 23 14 3 0 0
0 0 5 0 0 10 0 0 0 0 0 0 0 0 0 0 0 0 0 0 0 0 0 0 0 0 0 0 0 0 0 0 0 0 0 0 0 6 9 7 2 0 0
0 0 0 0 0 0 0 0 0 0 0 0 0 0 0 0 0 0 0 0 0 0 0 0 0 0 0 0 0 0 0 0 0 0 0 0 0 0 2 3 3 1 0
6 9 2 2 0 0 0 0 0 0 0 0 0 0 0 0 0 0 0 0 0 0 0 0 0 0 0 0 0 0 0 0 0 0 0 0 0 0 0 0 3 0 4
12 15 32 2 0 0 0 0 0 0 0 0 0 0 0 0 0 0 0 0 0 0 0 0 0 0 0 0 0 0 0 0 0 0 0 0 0 0 0 0 0 0 0
14 0 5 0 0 0 0 0 0 0 0 0 0 0 0 0 0 0 0 0 0 0 0 0 0 0 0 0 0 0 0 0 0 0 0 0 0 0 0 0 0 0 0
34 0 0 0 0 0 0 0 0 0 0 0 0 0 0 0 0 0 0 0 0 0 0 0 0 0 0 0 0 0 0 0 0 0 0 0 0 0 0 0 0 0 0
1 0 0 0 0 0 0 0 0 0 0 0 0 0 0 0 0 0 0 0 0 0 0 0 0 0 0 0 0 0 0 0 0 0 0 0 0 0 0 0 0 2 2
0 0 0 0 0 0 0 0 0 0 0 0 0 0 0 0 0 0 0 0 0 0 0 0 0 0 0 0 0 0 0 1 0 0 0 0 0 0 0 0 0 0 0
0 0 2 0 0 0 0 0 0 0 0 0 0 0 0 0 0 0 0 0 0 0 0 0 0 0 0 0 0 0 0 0 0 0 1 0 0 0 0 0 0 0 0
0 1 1 1 0 0 0 0 0 0 0 0 0 0 0 0 0 0 0 0 0 0 0 0 0 0 0 0 0 0 0 0 0 0 2 4 0 0 0 0 0 0 0
1 1 1 0 0 0 0 0 0 0 0 0 0 0 0 0 0 0 0 0 0 0 0 0 0 0 0 0 0 0 1 0 1 0 0 0 0 0 0 0 0 0 0
0 1 0 0 0 0 0 0 0 0 0 0 0 0 0 0 0 0 0 0 0 0 0 0 0 0 0 0 0 0 0 1 0 0 0 0 0 0 0 0 0 0 0
CIN
0 -283 0 0 0 0 0 0 0 0 0 0 0 0 0 0 0 0 0 0 0 0 0 0 -1 -1 0 0 0 0 0 0 0 0 0 0 0 0 -1 0 0 0 0
-238 -248 0 0 0 0 0 0 0 0 0 0 0 0 0 0 0 0 0 0 0 0 0 0 0 0 0 0 0 0 0 0 0 0 0 -1 0 0 0 0 0 -1 -1
-61 0 0 0 0 0 0 0 0 0 0 0 0 0 0 0 0 0 0 0 0 0 0 0 0 0 0 0 -4 -2 0 0 0 0 0 0 0 0 0 0 0 0 0
-43 -191 -175 0 0 0 0 0 0 0 0 0 0 0 0 0 0 0 0 0 0 0 0 0 0 0 0 0 0 -1 0 -1 0 -1 0 0 0 0 0 0 0 0 0
0 -123 -150 -162 -114 0 0 0 0 0 0 0 0 0 0 0 0 0 0 0 0 0 0 0 0 0 0 -1 0 -1 0 0 -1 0 0 0 0 0 0 0 0 0 0
-68 -87 -103 -139 -129 -102 -96 0 0 0 0 0 0 0 0 0 0 0 0 0 0 0 0 0 0 0 0 0 0 0 -1 -1 -1 -1 0 0 0 0 0 0 0 0 0
-92 -83 -78 -107 -113 -93 -99 -118 0 0 0 0 0 0 0 0 0 0 0 0 0 0 0 0 0 0 0 0 0 0 0 0 0 0 0 0 0 0 0 0 0 0 0
-78 -76 -87 -75 -84 -96 -91 0 0 0 0 0 0 0 0 0 0 0 0 0 0 0 0 0 0 0 0 0 0 0 0 0 0 0 0 0 0 0 0 0 0 0 0
0 0 0 0 -94 -91 -71 0 0 0 0 0 0 0 0 0 0 0 0 0 0 0 0 0 0 0 0 0 0 0 0 0 0 0 0 0 0 0 0 0 0 0 0
0 0 0 0 -72 -85 -75 -66 0 0 0 0 0 0 0 0 0 0 0 0 0 0 0 0 0 0 0 0 0 0 0 0 0 0 0 0 0 0 0 0 0 0 0
0 0 0 -84 -96 -89 -74 -83 0 0 0 0 0 0 0 0 0 0 0 0 0 0 0 0 0 0 0 0 0 0 0 0 0 0 0 0 -24 -2 0 0 0 0 0
0 0 -61 -166 -44 -102 -111 -102 0 0 0 0 0 0 0 0 0 0 0 0 0 0 0 0 0 0 0 0 0 0 0 0 0 0 0 -31 -20 -17 -22 0 0 0 0
0 -212 -178 -161 -123 -153 -83 -77 -48 -39 0 0 0 0 0 0 0 0 0 0 0 0 0 0 0 0 0 0 0 0 0 0 0 0 0 -41 -24 -21 -21 -24 -9 0 0
0 -173 0 0 -101 -117 -135 -7 0 -158 0 0 0 0 0 0 0 0 0 0 0 0 0 0 0 0 0 0 0 0 0 0 0 0 0 -1 -43 -34 -31 -28 -35 0 0
0 0 -158 0 0 -117 0 0 0 0 0 0 0 0 0 0 0 0 0 0 0 0 0 0 0 0 0 0 0 0 0 0 0 0 0 0 0 -51 -45 -48 -48 0 0
0 0 0 0 0 0 0 0 0 0 0 0 0 0 0 0 0 0 0 0 0 0 0 0 0 0 0 0 0 0 0 0 0 0 0 0 0 0 -65 -64 -63 -63 0
-177 -108 -61 -126 0 0 0 0 0 0 0 0 0 0 0 0 0 0 0 0 0 0 0 0 0 0 0 0 0 0 0 0 0 0 0 0 0 0 0 0 -40 -19 -9
-180 -116 -70 -74 0 0 0 0 0 0 0 0 0 0 0 0 0 0 0 0 0 0 0 0 0 0 0 0 0 0 0 0 0 0 0 0 0 0 0 0 0 0 0
-200 0 -121 0 0 0 0 0 0 0 0 0 0 0 0 0 0 0 0 0 0 0 0 0 0 0 0 0 0 0 0 0 0 0 0 0 0 0 0 0 0 0 0
-211 0 0 0 0 0 0 0 0 0 0 0 0 0 0 0 0 0 0 0 0 0 0 0 0 0 0 0 0 0 0 0 0 0 0 0 0 0 0 0 -9 0 0
-18 0 0 0 0 0 0 0 0 0 0 0 0 0 0 0 0 0 0 0 0 0 0 0 0 0 0 0 0 0 0 0 0 0 0 0 0 0 0 0 0 0 0
0 0 0 0 0 0 0 0 0 0 0 0 0 0 0 0 0 0 0 0 0 0 0 0 0 0 0 0 0 0 0 0 0 0 -5 0 0 0 0 0 0 0 0
0 0 0 0 0 0 0 0 0 0 0 0 0 0 0 0 0 0 0 0 0 0 0 0 0 0 0 0 0 0 0 0 0 0 -1 0 -2 -1 0 0 0 0 -1
0 0 0 0 0 0 0 0 0 0 0 0 0 0 0 0 0 0 0 0 0 0 0 0 0 0 0 0 0 0 0 0 0 0 -1 0 0 0 0 0 0 0 0
0 0 0 0 0 0 0 0 0 0 0 0 0 0 0 0 0 0 0 0 0 0 0 0 0 0 0 0 0 0 0 0 0 0 0 -1 0 0 0 0 0 0 0
0 0 0 0 0 0 0 0 0 0 0 0 0 0 0 0 0 0 0 0 0 0 0 0 0 0 0 0 0 0 0 0 0 0 0 0 0 0 0 0 0 0 0
Wind_Speed
11 13 9 6 7 6 7 5 5 4 6 7 7 7 7 8 10 12 14 15 16 15 15 14 14 14 15 16 16 16 17 19 21 20 20 19 21 23 23 22 24 26 27
12 10 6 5 4 3 4 4 4 9 9 8 7 8 8 9 10 11 13 15 16 16 15 12 12 12 13 14 14 15 15 16 18 18 19 21 21 23 23 24 26 27 28
13 7 6 4 3 2 3 8 9 10 10 11 10 10 9 9 10 11 13 14 16 15 14 13 12 11 11 12 12 13 14 15 16 17 19 20 21 22 23 25 27 28 29
8 6 6 5 4 7 11 12 13 9 10 11 12 12 11 10 9 9 12 12 13 14 15 14 12 11 10 10 11 13 13 14 15 16 20 20 21 22 23 26 27 28 30
7 8 6 7 5 15 25 20 16 14 11 12 15 16 13 10 9 10 11 9 11 13 14 14 14 13 12 11 12 13 12 13 16 17 18 19 20 22 23 26 28 29 31
8 12 20 22 21 23 25 26 16 16 17 14 17 18 18 16 13 12 9 9 10 12 14 14 13 14 14 14 14 13 14 14 15 17 18 18 19 21 23 26 28 30 31
16 17 24 21 25 16 26 14 14 15 15 15 18 21 20 16 15 13 11 9 11 11 12 13 13 13 13 14 14 16 15 14 14 18 17 17 19 21 23 26 28 29 30
30 32 31 28 23 14 14 9 8 14 18 14 18 20 23 23 18 16 16 14 13 14 13 13 12 13 13 14 16 15 15 15 15 16 16 17 18 20 22 25 28 30 31
36 33 35 23 21 18 10 8 9 13 16 18 20 20 23 25 24 21 18 18 17 17 14 14 12 13 14 15 17 16 15 15 15 16 17 17 19 20 22 24 27 30 31
39 37 37 26 17 11 11 11 12 13 18 19 21 22 22 21 23 27 21 19 19 18 19 19 17 17 18 19 18 17 16 16 17 17 18 18 19 20 22 24 27 30 31
40 39 39 38 10 11 15 15 17 15 16 19 18 20 22 21 21 24 26 21 21 22 19 18 19 21 23 22 20 19 19 19 18 19 19 20 20 21 23 25 27 29 31
40 38 33 29 20 13 12 20 23 19 18 19 21 18 19 22 21 21 22 23 22 22 22 21 22 24 23 22 23 23 22 21 21 21 21 21 22 23 24 25 27 29 31
36 37 30 20 16 12 9 14 22 18 19 20 15 17 17 18 19 20 21 24 24 23 22 21 23 24 25 25 26 24 23 23 23 24 24 23 24 24 25 26 27 29 30
30 32 21 12 12 9 7 6 10 15 14 16 14 13 15 16 17 20 19 21 27 26 25 25 25 27 29 26 26 25 24 25 25 25 25 25 25 26 27 27 27 28 29
11 14 14 13 11 12 12 15 12 12 13 13 16 16 17 17 16 18 20 22 24 29 29 27 29 30 29 27 27 27 26 25 25 25 26 26 27 28 28 28 28 27 28
20 19 23 22 22 15 15 12 14 13 13 14 14 14 16 16 17 18 18 20 22 25 30 27 30 31 30 29 29 28 28 28 29 28 28 28 29 30 31 30 29 29 28
22 26 16 16 11 13 14 14 14 13 14 13 14 14 15 14 15 18 19 22 23 22 29 32 31 31 31 31 30 30 31 32 32 31 31 31 32 33 33 32 32 30 28
25 14 15 13 10 12 14 14 14 13 13 13 13 14 15 14 16 19 21 23 23 25 30 35 33 32 32 32 32 34 34 33 34 33 34 33 33 34 33 34 33 30 30
13 14 13 12 13 12 13 14 14 13 13 13 14 15 13 15 18 19 19 23 26 29 30 32 34 32 33 34 37 37 38 38 36 36 35 35 35 35 35 32 30 31 30
14 12 13 14 13 14 13 13 14 14 14 15 14 14 14 18 17 18 20 25 28 30 29 32 34 35 35 36 37 42 44 40 41 38 37 37 37 37 34 32 32 32 30
13 12 11 12 12 12 12 12 13 13 14 15 14 15 16 16 18 17 23 26 27 28 30 32 35 37 38 41 43 43 45 47 45 41 43 41 39 36 34 31 31 29 23
11 10 10 10 11 12 11 11 13 14 15 14 15 15 15 16 17 19 21 24 24 27 31 34 37 40 41 42 42 44 45 47 52 40 41 44 37 38 33 29 26 24 23
12 11 11 11 12 14 11 11 13 14 15 15 14 14 16 17 19 21 23 24 26 28 30 33 38 39 40 40 42 44 44 45 47 45 44 47 38 36 32 27 23 21 22
12 11 12 13 14 13 11 12 13 14 14 15 15 15 16 18 22 23 25 27 29 30 32 32 33 35 35 37 39 41 43 45 44 43 37 45 37 34 28 24 23 20 15
12 13 14 13 13 13 12 12 12 13 14 15 16 17 18 20 22 24 27 30 32 33 31 32 33 35 37 38 38 41 43 44 49 46 38 37 34 29 25 22 19 14 13
15 15 14 14 13 12 11 11 12 13 15 16 18 19 21 22 25 27 28 31 34 35 37 37 35 36 36 37 38 37 39 43 44 47 36 35 30 25 26 21 18 15 13
Wind_Direction
156 128 123 121 96 89 72 30 345 318 286 297 309 316 347 352 2 6 15 21 19 27 36 36 42 46 42 39 36 36 33 28 22 23 18 16 12 8 6 5 1 357 354
152 144 140 132 98 91 61 329 315 278 281 293 313 324 335 342 1 16 17 10 9 14 18 34 38 40 35 34 33 29 27 22 18 16 14 9 7 2 1 359 354 350 346
153 160 146 149 131 311 296 283 278 286 293 283 296 303 322 347 358 5 9 9 12 14 16 19 25 29 26 25 27 21 16 11 10 6 4 1 358 357 355 351 348 345 343
165 186 171 153 250 273 265 271 273 293 296 300 298 300 315 336 357 5 3 13 14 11 10 15 16 13 16 14 10 5 3 2 2 359 358 354 353 352 349 346 343 341 338
181 225 223 238 257 258 241 258 272 281 295 298 293 294 312 329 346 348 354 7 5 359 360 5 8 10 9 3 357 356 355 353 353 353 350 351 350 348 346 344 341 338 335
206 240 246 242 249 253 255 253 278 279 283 294 292 296 303 314 326 335 347 353 348 347 350 355 359 0 1 354 353 349 344 342 345 345 346 345 345 345 344 341 339 336 333
246 243 235 245 246 270 256 277 282 284 289 292 298 300 307 316 319 323 328 328 330 336 339 341 343 349 350 348 345 341 340 338 337 337 339 340 340 339 339 339 338 336 333
228 223 228 241 260 279 283 281 280 288 286 292 300 307 308 311 313 312 317 315 314 322 323 327 333 333 335 337 334 332 333 331 329 331 332 333 334 334 335 337 336 334 332
219 230 228 263 275 280 278 269 270 280 287 291 295 302 308 305 318 320 312 314 313 316 316 314 319 321 323 325 325 324 323 322 322 322 322 323 325 328 330 332 332 331 330
225 232 239 271 283 279 275 268 271 276 288 288 293 295 303 313 312 318 322 321 316 315 316 311 313 316 317 317 316 315 314 311 310 311 313 313 317 320 323 326 328 328 328
228 226 229 243 263 269 280 282 285 280 283 288 288 298 300 308 315 312 316 318 320 319 320 317 316 316 317 315 313 310 307 304 301 302 305 306 308 312 316 320 323 325 325
222 218 215 212 205 217 263 283 286 286 286 290 288 289 295 303 306 312 312 313 314 319 324 325 322 322 321 317 314 310 304 299 298 298 301 302 303 306 309 314 317 320 321
218 221 213 208 211 222 230 300 280 285 286 289 290 290 295 302 308 311 311 314 313 321 324 325 325 327 326 324 322 318 314 307 301 298 299 298 299 300 303 308 311 315 318
210 217 207 219 218 235 275 295 299 287 289 293 290 293 298 302 305 312 311 315 313 315 319 318 326 325 324 323 323 322 319 313 307 300 296 295 296 297 298 300 305 310 313
245 274 223 226 238 227 276 295 294 286 292 297 299 299 303 308 308 316 314 315 316 312 315 322 323 326 326 324 323 322 319 316 312 307 300 295 293 294 295 296 298 303 306
281 282 282 282 283 270 276 274 289 294 296 301 301 301 305 310 314 320 320 318 318 314 313 322 323 323 323 322 322 321 320 317 314 308 303 299 295 293 292 291 292 295 298
277 280 284 276 260 270 275 275 282 289 293 295 303 300 303 308 309 319 319 320 318 318 314 320 323 324 323 322 322 321 320 318 317 312 307 302 299 295 292 291 289 291 294
274 257 262 247 264 263 272 276 277 284 282 287 294 298 299 310 311 317 319 321 321 321 319 318 321 323 323 324 323 322 322 321 319 317 313 308 303 300 298 290 286 286 288
224 238 233 264 272 271 273 275 275 279 283 290 295 299 297 305 310 316 320 323 322 321 320 319 321 325 325 326 325 324 323 322 321 319 315 311 307 303 300 294 283 281 284
242 248 249 266 273 281 278 274 281 286 290 295 295 299 299 308 311 313 317 321 322 322 323 322 322 324 325 327 325 323 322 322 321 321 318 315 313 309 302 295 288 282 277
254 256 261 266 271 279 277 276 281 286 290 296 294 304 306 312 315 320 319 321 323 323 323 323 323 324 324 325 324 325 322 322 321 321 319 318 316 313 310 303 298 294 282
256 255 261 265 275 278 274 275 284 289 293 292 295 303 308 316 321 324 325 326 326 324 323 323 322 322 323 324 325 325 324 324 323 328 324 321 321 317 315 310 301 293 284
264 266 269 278 281 287 279 282 292 297 298 298 301 303 312 318 321 323 325 326 326 326 325 324 322 323 324 327 327 326 326 324 323 324 324 319 321 313 314 311 307 300 290
273 273 279 289 290 292 287 294 300 303 306 309 310 311 313 317 322 322 322 322 323 325 326 327 326 326 327 328 327 326 325 325 325 327 326 321 323 317 315 312 311 306 282
279 285 289 288 287 292 294 298 303 308 309 313 317 319 320 321 323 323 322 321 322 324 328 327 326 326 327 328 328 327 326 325 324 326 330 325 323 320 323 317 317 308 295
285 289 293 297 298 299 300 302 304 306 307 311 317 320 323 321 322 322 322 322 321 323 325 326 328 328 328 329 329 328 326 324 325 325 333 330 326 328 323 324 315 308 305